DW3319 Weather Reports


Display with metric or nautical units.
time (UTC)temp
F
wind
direction
speed
MPH
gust
MPH
rain 1hr
in
rain 24hr
in
rain mn
in
humidity
%
barometer
mb
20260902174544 81 193 1.0 5.0 0.00 0.69 0.04 95 1016.1
20260902173053 80 215 0.0 5.0 0.00 0.69 0.04 95 1016.4
20260902171550 80 178 0.0 6.0 0.00 0.69 0.04 95 1016.9
20260902170048 80 137 1.0 4.0 0.00 0.69 0.04 96 1017.0
20260902164545 79 142 1.0 3.0 0.00 0.69 0.04 96 1017.0
20260902163105 78 142 2.0 5.0 0.00 0.69 0.04 97 1017.6
20260902161554 78 160 1.0 4.0 0.00 0.69 0.04 98 1017.2
20260902160045 78 111 1.0 4.0 0.04 0.69 0.04 97 1017.3
20260902154557 78 105 1.0 5.0 0.04 0.69 0.04 97 1017.1
20260902153049 78 137 3.0 9.0 0.04 0.69 0.04 96 1017.1
20260902151547 80 196 4.0 14.0 0.04 0.69 0.04 99 1017.2
20260902150047 80 144 1.0 3.0 0.00 0.65 0.00 99 1016.7
20260902144553 80 0 0.0 2.0 0.00 0.66 0.00 99 1016.5
20260902143050 79 119 0.0 3.0 0.00 0.66 0.00 99 1016.3
20260902141555 79 129 0.0 4.0 0.00 0.66 0.00 99 1016.1
20260902140043 79 0 0.0 3.0 0.00 0.66 0.00 99 1016.1
20260902134552 78 153 1.0 5.0 0.00 0.75 0.00 99 1016.1
20260902133047 78 0 0.0 2.0 0.00 0.75 0.00 99 1016.0
20260902131549 78 0 0.0 2.0 0.00 0.75 0.00 99 1016.0
20260902130053 78 0 0.0 1.0 0.00 0.75 0.00 99 1015.7
20260902124551 78 298 0.0 1.0 0.00 0.75 0.00 99 1015.5
20260902123056 78 108 0.0 1.0 0.00 0.75 0.00 99 1015.3
20260902121544 78 0 0.0 2.0 0.00 0.75 0.00 99 1015.1
20260902120055 78 0 0.0 2.0 0.00 0.75 0.00 99 1015.2
20260902114549 78 126 0.0 2.0 0.00 0.75 0.00 99 1015.0
20260902113053 78 0 1.0 4.0 0.00 0.75 0.00 99 1014.9
20260902111550 78 0 0.0 2.0 0.00 0.75 0.00 99 1014.9
20260902110047 78 146 0.0 2.0 0.00 0.75 0.00 99 1014.9
20260902104555 78 0 1.0 6.0 0.00 0.75 0.00 99 1015.0
20260902103048 78 221 0.0 3.0 0.00 0.75 0.00 99 1014.9
20260902101542 78 137 1.0 4.0 0.00 0.75 0.00 99 1014.7
20260902100108 78 0 0.0 2.0 0.00 0.75 0.00 99 1014.6
20260902094549 78 0 0.0 2.0 0.00 0.75 0.00 99 1014.6
20260902093050 78 0 0.0 3.0 0.00 0.75 0.00 99 1014.6
20260902091555 78 0 0.0 4.0 0.00 0.75 0.00 99 1014.4
20260902090047 78 0 0.0 4.0 0.00 0.75 0.00 99 1014.6
20260902084558 78 0 0.0 2.0 0.00 0.75 0.00 99 1014.5
20260902083058 78 0 0.0 4.0 0.00 0.75 0.00 98 1014.5
20260902081602 78 126 1.0 4.0 0.00 0.75 0.00 99 1014.4
20260902080059 78 205 1.0 5.0 0.00 0.75 0.00 98 1014.4
20260902074600 78 193 1.0 6.0 0.00 0.75 0.00 99 1014.6
20260902073057 78 205 2.0 7.0 0.00 0.75 0.00 99 1014.4
20260902071547 78 152 2.0 6.0 0.00 0.75 0.00 99 1014.6
20260902070104 78 137 1.0 6.0 0.00 0.75 0.00 99 1014.7
20260902064550 78 178 2.0 6.0 0.00 0.75 0.00 98 1015.2
20260902063054 78 126 1.0 5.0 0.00 0.75 0.00 98 1015.2
20260902061602 78 137 1.0 6.0 0.00 0.75 0.00 98 1015.2
20260902060048 78 215 0.0 2.0 0.00 0.75 0.00 98 1014.7
20260902054556 78 0 0.0 3.0 0.00 0.75 0.00 98 1014.9
20260902053059 78 155 1.0 5.0 0.00 0.75 0.00 98 1015.1
20260902051549 78 165 1.0 5.0 0.00 0.75 0.00 98 1014.9
20260902044556 79 164 2.0 7.0 0.00 0.75 0.75 98 1015.0
20260902043053 79 171 2.0 11.0 0.00 0.75 0.75 98 1014.9
20260902041548 79 205 3.0 10.0 0.00 0.75 0.75 98 1014.9
20260902040049 79 166 3.0 15.0 0.00 0.75 0.75 98 1014.9
20260902034544 79 200 3.0 8.0 0.00 0.75 0.75 98 1015.0
20260902033057 79 157 5.0 11.0 0.00 0.75 0.75 98 1015.1
20260902031552 79 175 3.0 10.0 0.00 0.75 0.75 98 1014.9
20260902030042 78 186 3.0 10.0 0.00 0.75 0.75 98 1014.6
20260902024543 78 168 4.0 12.0 0.00 0.75 0.75 99 1014.3
20260902023054 78 205 3.0 10.0 0.01 0.75 0.75 98 1014.2
20260902021546 78 279 2.0 7.0 0.01 0.75 0.75 98 1014.1
20260902020058 78 200 3.0 8.0 0.28 0.75 0.75 98 1014.0
20260902014556 78 162 1.0 9.0 0.41 0.75 0.75 98 1013.9
20260902013053 78 189 4.0 12.0 0.46 0.74 0.74 98 1013.7
20260902011553 78 201 2.0 8.0 0.51 0.74 0.74 98 1013.6
20260902010106 79 178 1.0 9.0 0.23 0.46 0.46 97 1013.4
20260902004557 79 182 4.0 10.0 0.11 0.34 0.34 96 1013.6
20260902003051 80 163 7.0 13.0 0.04 0.27 0.27 95 1013.7
20260902001610 80 49 4.0 15.0 0.00 0.23 0.23 94 1013.6
20260902000053 81 193 4.0 15.0 0.00 0.23 0.23 93 1013.6
20260901234556 81 133 4.0 12.0 0.00 0.23 0.23 93 1013.4
20260901233056 81 212 3.0 14.0 0.00 0.23 0.23 93 1013.4
20260901231548 81 146 4.0 14.0 0.00 0.23 0.23 93 1013.2
20260901230056 81 117 4.0 16.0 0.00 0.23 0.23 93 1013.1
20260901224556 81 208 3.0 14.0 0.00 0.23 0.23 93 1012.9
20260901223054 81 190 4.0 15.0 0.00 0.23 0.23 92 1013.0
20260901221557 81 61 4.0 14.0 0.00 0.23 0.23 92 1012.7
20260901220056 81 116 2.0 13.0 0.00 0.23 0.23 93 1012.3
20260901214558 81 139 3.0 15.0 0.00 0.35 0.23 94 1012.4
20260901213107 80 137 3.0 10.0 0.00 0.35 0.23 95 1012.8
20260901211544 80 87 2.0 9.0 0.00 0.35 0.23 96 1012.7
20260901210113 80 34 3.0 10.0 0.00 0.35 0.23 97 1012.8
20260901204555 80 165 2.0 11.0 0.00 0.35 0.23 97 1013.0
20260901203050 80 85 2.0 12.0 0.00 0.35 0.23 97 1013.5
20260901201557 79 116 2.0 10.0 0.04 0.35 0.23 97 1013.6
20260901200110 79 79 2.0 9.0 0.08 0.35 0.23 97 1013.7
20260901194556 78 304 3.0 13.0 0.09 0.35 0.23 97 1013.8
20260901193050 78 311 3.0 10.0 0.09 0.35 0.23 96 1013.8
20260901191552 79 196 2.0 10.0 0.05 0.31 0.19 94 1013.8
20260901190057 80 330 2.0 10.0 0.01 0.27 0.15 94 1014.1
20260901184604 80 137 2.0 10.0 0.00 0.26 0.14 94 1014.2
20260901183103 80 51 3.0 11.0 0.04 0.26 0.14 94 1014.3
20260901181549 80 51 2.0 12.0 0.04 0.26 0.14 95 1014.4
20260901180048 79 291 2.0 9.0 0.04 0.26 0.14 95 1014.7